CST,Max TemperatureF,Mean TemperatureF,Min TemperatureF,Max Dew PointF,MeanDew PointF,Min DewpointF,Max Humidity, Mean Humidity, Min Humidity, Max Sea Level PressureIn, Mean Sea Level PressureIn, Min Sea Level PressureIn, Max VisibilityMiles, Mean VisibilityMiles, Min VisibilityMiles, Max Wind SpeedMPH, Mean Wind SpeedMPH, Max Gust SpeedMPH,PrecipitationIn, CloudCover, Events, WindDirDegrees
2012-1-1,59,48,37,34,27,18,66,45,20,30.55,30.39,30.09,10,10,10,20,11,32,0.00,0,,336
2012-1-2,50,41,30,21,11,3,56,31,16,30.70,30.61,30.57,10,10,10,16,10,25,0.01,0,,328
2012-1-3,53,38,24,19,17,12,74,41,24,30.58,30.43,30.27,10,10,10,13,6,16,0.00,0,,142
2012-1-4,59,44,30,34,30,21,87,59,36,30.33,30.28,30.23,10,10,10,8,5,,0.00,0,,266
2012-1-5,66,49,32,36,32,28,100,66,26,30.31,30.25,30.13,10,10,7,9,3,,0.00,0,,239
2012-1-6,66,50,35,54,43,32,88,75,52,30.05,29.97,29.88,10,10,7,15,5,17,0.00,3,,153
2012-1-7,62,54,46,54,49,45,100,88,68,30.05,29.98,29.92,10,8,4,12,5,16,0.00,5,,75
2012-1-8,53,50,46,46,44,39,93,78,66,30.16,30.10,30.04,10,8,5,13,8,18,0.00,6,,80
2012-1-9,50,47,44,46,43,43,93,87,76,30.18,30.12,30.05,10,8,2,13,7,16,0.01,7,,47
2012-1-10,50,47,44,48,44,43,100,92,82,30.05,29.86,29.74,10,7,2,16,8,25,0.23,8,,47
2012-1-11,62,50,37,43,37,32,100,73,34,29.85,29.74,29.66,10,8,2,25,6,31,0.00,2,,272
2012-1-12,42,36,30,32,16,9,75,50,33,30.18,30.09,29.86,10,10,10,25,18,34,0.00,1,,306
2012-1-13,50,36,23,23,15,5,69,39,19,30.29,30.23,30.20,10,10,10,8,4,,0.00,0,,220
2012-1-14,32,29,26,25,23,21,86,74,64,30.22,30.21,30.20,10,10,10,5,2,,0.00,0,,188
2012-1-15,62,56,50,46,34,30,67,42,30,30.32,30.18,30.11,10,10,10,17,10,18,0.00,3,,161
2012-1-16,68,64,59,59,57,48,83,76,67,30.10,29.98,29.89,10,10,10,21,13,31,0.00,8,,199
2012-1-17,68,52,33,61,37,18,83,56,30,30.34,30.10,29.89,10,10,10,22,14,30,0.00,2,,308
2012-1-18,50,38,26,25,23,19,80,50,34,30.36,30.24,30.10,10,10,10,9,5,,0.00,0,,101
2012-1-19,64,48,32,41,37,25,87,61,40,29.95,29.89,29.85,10,10,10,10,5,,0.00,0,,89
2012-1-20,75,58,41,61,49,37,100,77,44,29.89,29.78,29.67,10,7,0,21,9,26,0.00,4,,147
2012-1-21,53,44,35,43,38,34,93,77,58,30.07,29.98,29.88,10,8,5,15,10,20,0.00,4,,19
2012-1-22,71,55,39,64,45,30,100,82,26,29.91,29.75,29.59,10,4,0,28,11,39,0.00,6,,137
2012-1-23,60,48,37,37,33,28,87,61,29,30.13,30.03,29.89,10,10,10,14,7,20,0.00,0,,260
2012-1-24,64,50,35,45,35,30,93,58,28,30.18,30.08,30.02,10,9,4,21,11,26,0.05,3,,88
2012-1-25,48,46,44,46,45,43,100,94,93,30.02,29.89,29.69,10,8,3,20,12,29,0.34,8,,29
2012-1-26,51,44,37,46,43,36,100,90,58,30.00,29.87,29.80,10,5,0,17,4,23,0.46,6,,289
2012-1-27,64,48,32,41,35,30,100,60,32,30.10,29.99,29.89,10,10,10,16,6,24,0.00,1,,184
2012-1-28,51,43,33,34,23,12,70,46,22,30.48,30.37,30.11,10,10,10,23,12,37,0.00,0,,349
2012-1-29,59,42,26,32,26,21,100,59,25,30.46,30.40,30.30,10,10,10,12,2,,0.00,0,,199
2012-1-30,68,50,32,43,35,28,93,50,26,30.29,30.19,30.12,10,10,10,15,6,22,0.00,2,,170
2012-1-31,66,60,55,57,53,43,94,80,55,30.14,30.08,30.00,10,10,5,15,12,22,0.00,6,,173